{"data":{"norad_id":67448,"epoch":"2026-05-25T00:00:19.339776Z","epoch_age_seconds":89105,"freshness":"FRESH","line1":"1 67448U 26008D   26145.00022384  .00008500  00000+0  31795-3 0  9992","line2":"2 67448  43.0008 134.2083 0001360 268.5063  91.5633 15.27591500 21248","mean_motion":15.275915,"eccentricity":0.000136,"inclination_deg":43.0008,"raan_deg":134.2083,"arg_perigee_deg":268.5063,"mean_anomaly_deg":91.5633,"bstar":0.00031795,"rev_number":2124,"period_min":94.266039055598,"perigee_km":482.08154449267,"apogee_km":483.94777774449,"semimajor_km":6861.1516611186,"source":"CELESTRAK","updated_at":"2026-05-25T13:38:21.559682Z"}}